Location: Possagno
(45.8500°N, 11.8667°E)
Time: 09:21:03
(UTC+00:00)

SL-16 R/B - Pass Details

Date: 07 June 2020
Orbit: 986 x 1006 km, 99.5° (Epoch: 05 July)

Event Time Altitude Azimuth Distance (km) Brightness Sun altitude
Exits shadow 01:55:28 16° 214° (SW) 2,356 3.8 -11.9°
Maximum altitude 01:59:28 29° 265° (W) 1,711 3.4 -11.5°
Drops below altitude 10° 02:04:47 10° 325° (NW) 2,760 5.1 -10.9°
Sets 02:07:38 0° 336° (NNW) 3,717 5.9 -10.6°
